Location: Prescott
(34.5400°N, 112.4680°W)
Time: 03:20:11
(UTC-07:00)

Amateur Radio Satellites - All Passes

Search period start: 30 June 2016 02:50
Search period end: 01 July 2016 02:50
Location: Prescott, 34.5400°N, 112.4680°W

Satellite Date Start Highest point End Downlink Frequencies (MHz)
Time Altitude Azimuth
O/OREOS (USA 219) 30 Jun 03:03:37 03:07:14 23° 297° (WNW) 03:10:51 437.305
PCSat 30 Jun 03:04:47 03:08:02 16° 310° (NW) 03:11:19 145.827
BEESAT 30 Jun 03:08:38 03:12:12 21° 265° (W) 03:15:48 436.000
ITUPSAT 1 30 Jun 03:10:51 03:14:23 20° 265° (W) 03:17:56 437.325
Oscar 19 30 Jun 03:16:57 03:20:10 17° 294° (WNW) 03:23:22 437.125/150
KKS-1 30 Jun 03:29:02 03:33:26 74° 76° (ENE) 03:37:51 437.445
Cosmos 2504 30 Jun 03:29:38 03:31:30 11° 285° (WNW) 03:33:21 435.465 / 435.565
MOZHAYETS 4 30 Jun 03:31:22 03:35:57 68° 76° (ENE) 03:40:35
GONETS M04 30 Jun 03:31:34 03:34:27 12° 63° (ENE) 03:37:19
ITAMSAT 1 30 Jun 03:41:32 03:46:44 68° 286° (WNW) 03:51:53 435.822/435.867
AIST 2 30 Jun 03:43:48 03:47:39 40° 114° (ESE) 03:51:31 435.215
Gurwin Techsat 1B 30 Jun 03:46:49 03:50:47 22° 293° (WNW) 03:54:43 435.225
STARS 30 Jun 03:56:34 04:00:54 73° 77° (ENE) 04:05:15 437.465
PHONESAT 2.4 30 Jun 04:02:35 04:03:21 11° 142° (SE) 04:04:08 2401.200-2431.200
Cosmos 2499 30 Jun 04:11:45 04:16:27 15° 65° (ENE) 04:21:00 435.465 / 435.565
AIST 1 30 Jun 04:12:11 04:16:25 68° 265° (W) 04:20:38
AO-7 30 Jun 04:28:22 04:36:48 89° 107° (ESE) 04:45:10 29.400- 29.500
HORYU 2 30 Jun 04:49:07 04:53:10 32° 98° (E) 04:57:11 437.375
AO-85 30 Jun 05:03:26 05:06:17 16° 48° (NE) 05:09:00 145.980
CUBESAT XI-V 30 Jun 05:03:34 05:08:16 76° 76° (ENE) 05:12:58 437.345
NOAA 15 30 Jun 05:19:34 05:21:58 13° 92° (E) 05:24:20 137.62
AIST 2 30 Jun 05:23:40 05:26:17 16° 310° (NW) 05:28:56 435.215
GONETS M04 30 Jun 05:23:59 05:32:44 75° 83° (E) 05:41:30
STRAND 1 30 Jun 05:33:44 05:34:34 10° 62° (ENE) 05:35:24 437.568
PHONESAT 2.4 30 Jun 05:36:31 05:39:34 76° 154° (SSE) 05:42:38 2401.200-2431.200
BRITE-PL 30 Jun 05:51:47 05:55:14 25° 97° (E) 05:58:46 437.365/2234.400
CUSAT 1 30 Jun 05:52:33 05:58:20 23° 90° (E) 06:03:32 437.405
Cubesat XI-IV 30 Jun 06:01:27 06:05:56 26° 96° (E) 06:10:22 437.490
Cosmos 2499 30 Jun 06:02:06 06:10:51 89° 81° (E) 06:18:58 435.465 / 435.565
NOAA 18 30 Jun 06:10:08 06:15:10 35° 98° (E) 06:20:12 137.9125
GOMX 1 30 Jun 06:16:15 06:19:32 21° 96° (E) 06:22:55 467.674
AO-7 30 Jun 06:23:14 06:28:27 19° 305° (NW) 06:33:41 29.400- 29.500
HORYU 2 30 Jun 06:26:14 06:29:28 20° 292° (WNW) 06:32:42 437.375
DANDE 30 Jun 06:30:50 06:37:19 26° 87° (E) 06:43:30 436.750
CUTE-I 30 Jun 06:34:35 06:39:54 57° 101° (E) 06:45:09 437.470
LilacSat-2 30 Jun 06:39:53 06:43:46 71° 101° (ESE) 06:47:38 437.200
AO-85 30 Jun 06:42:53 06:47:00 42° 247° (WSW) 06:50:48 145.980
ISS 30 Jun 06:55:08 06:58:09 36° 132° (SE) 07:01:11 145.825
NOAA 15 30 Jun 06:56:55 07:02:05 61° 286° (WNW) 07:07:13 137.62
DOVE 4 30 Jun 07:06:36 07:10:41 36° 98° (E) 07:14:59 437.250
STRAND 1 30 Jun 07:07:51 07:12:59 82° 257° (WSW) 07:18:09 437.568
PHONESAT 2.4 30 Jun 07:13:36 07:16:22 30° 350° (N) 07:19:07 2401.200-2431.200
PRISM 30 Jun 07:19:03 07:21:35 16° 68° (ENE) 07:24:06 437.425
GONETS M04 30 Jun 07:22:59 07:28:31 19° 279° (W) 07:34:05
BRITE-PL 30 Jun 07:30:33 07:33:36 20° 290° (WNW) 07:36:42 437.365/2234.400
CUSAT 1 30 Jun 07:32:23 07:40:06 59° 280° (W) 07:46:40 437.405
Cubesat XI-IV 30 Jun 07:41:11 07:45:57 33° 291° (WNW) 07:50:42 437.490
HO-68 30 Jun 07:44:21 07:50:37 31° 97° (E) 07:56:49 435.675
CINEMA 3 30 Jun 07:48:43 07:52:49 30° 97° (E) 07:57:04 145.822/145.860
NOAA 18 30 Jun 07:51:03 07:55:37 27° 293° (WNW) 08:00:11 137.9125
GOMX 1 30 Jun 07:54:01 07:57:34 26° 288° (WNW) 08:01:16 467.674
Cosmos 2499 30 Jun 07:58:17 08:02:34 15° 282° (WNW) 08:06:45 435.465 / 435.565
COMPASS 1 30 Jun 08:06:08 08:08:59 18° 94° (E) 08:11:49 437.405
CANX-2 30 Jun 08:10:45 08:14:56 51° 100° (E) 08:19:04 2200.000
DANDE 30 Jun 08:11:20 08:19:40 64° 280° (W) 08:27:27 436.750
CUTE-I 30 Jun 08:16:13 08:19:24 16° 296° (WNW) 08:22:36 437.470
UWE-3 30 Jun 08:18:42 08:20:33 12° 92° (E) 08:22:25 435.000/436.395/437.385
CUTE 1.7 + AOD 2 30 Jun 08:30:18 08:34:35 79° 101° (E) 08:38:50 437.475
SEEDS 30 Jun 08:30:50 08:34:59 54° 100° (E) 08:39:05 437.485
ISS 30 Jun 08:32:12 08:34:40 19° 327° (NNW) 08:37:08 145.825
AUBIESAT-1 30 Jun 08:36:00 08:36:45 10° 99° (E) 08:37:29 437.475
DOVE 4 30 Jun 08:45:13 08:48:09 18° 290° (WNW) 08:51:10 437.250
PHONESAT 2.4 30 Jun 08:50:44 08:53:27 27° 7° (N) 08:56:09 2401.200-2431.200
PRISM 30 Jun 08:52:47 08:56:34 34° 261° (W) 09:00:22 437.425
AAUSAT CUBESAT 2 30 Jun 09:04:23 09:08:32 76° 100° (E) 09:12:39 437.432
CUBEBUG 2 30 Jun 09:09:20 09:14:00 73° 101° (E) 09:18:44 437.445
M-CUBED/EXP-1 PRIME 30 Jun 09:14:08 09:17:57 39° 104° (ESE) 09:22:03 437.505
ANTELSAT 30 Jun 09:21:05 09:24:31 24° 70° (ENE) 09:28:00 437.575/2403.000
CINEMA 3 30 Jun 09:26:10 09:29:46 23° 290° (WNW) 09:33:29 145.822/145.860
ZACube-1 30 Jun 09:27:14 09:31:40 49° 99° (E) 09:36:07 437.345
HO-68 30 Jun 09:31:39 09:38:21 43° 292° (WNW) 09:45:02 435.675
Oscar 11 30 Jun 09:33:23 09:37:42 61° 101° (E) 09:41:59 145.826/435.025
RS-15 30 Jun 09:39:53 09:48:29 26° 101° (ESE) 09:57:22 29.354- 29.394
COMPASS 1 30 Jun 09:40:55 09:44:33 29° 288° (WNW) 09:48:09 437.405
FUNcube-1 30 Jun 09:43:37 09:48:11 72° 101° (ESE) 09:52:44 145.935
CANX-2 30 Jun 09:48:52 09:50:17 11° 294° (WNW) 09:51:42 2200.000
UWE-3 30 Jun 09:52:43 09:57:14 54° 285° (WNW) 10:01:47 435.000/436.395/437.385
DANDE 30 Jun 10:01:36 10:03:34 11° 295° (WNW) 10:05:29 436.750
NANOSAT C BR1 30 Jun 10:07:18 10:08:11 11° 66° (ENE) 10:09:05 145.865
AUBIESAT-1 30 Jun 10:07:21 10:11:19 55° 289° (WNW) 10:15:34 437.475
SEEDS 30 Jun 10:09:12 10:10:09 11° 294° (WNW) 10:11:07 437.485
QB50P1 30 Jun 10:10:29 10:12:19 13° 66° (ENE) 10:14:08 145.935-145.965
PCSat 30 Jun 10:10:42 10:15:15 26° 55° (NE) 10:19:46 145.827
TIGRISAT 30 Jun 10:11:04 10:15:21 88° 78° (ENE) 10:19:45 435.000
POPSAT HIP 1 30 Jun 10:13:38 10:15:42 14° 67° (ENE) 10:17:47 437.405
UNISAT 6 30 Jun 10:16:55 10:21:12 73° 259° (W) 10:25:35 437.425
HUMSAT D 30 Jun 10:23:07 10:27:15 44° 99° (E) 10:31:20 437.325/437.525
DUCHIFAT 1 30 Jun 10:24:57 10:27:36 17° 68° (ENE) 10:30:16 145.980
QB50P2 30 Jun 10:25:19 10:28:25 20° 69° (ENE) 10:31:32 145.880/145.840
PHONESAT 2.4 30 Jun 10:27:14 10:30:18 81° 23° (NNE) 10:33:22 2401.200-2431.200
BEESAT 3 30 Jun 10:27:15 10:30:39 27° 55° (NE) 10:34:03 437.485
POLYITAN 1 30 Jun 10:27:55 10:31:03 21° 69° (ENE) 10:34:12 437.675
DELFI C3 30 Jun 10:34:42 10:38:34 51° 285° (WNW) 10:42:23 145.870
YUBILEINY 30 Jun 10:34:50 10:35:35 10° 76° (ENE) 10:36:20 435.215
Cosmos 2491 30 Jun 10:46:37 10:54:31 37° 75° (ENE) 11:02:20 435.465 / 435.565
ESTCUBE 1 30 Jun 10:48:04 10:50:07 13° 93° (E) 10:52:09 437.505/2401.250
CUBEBUG 2 30 Jun 10:49:43 10:50:00 10° 295° (WNW) 10:50:16 437.445
M-CUBED/EXP-1 PRIME 30 Jun 10:49:51 10:52:14 15° 295° (WNW) 10:54:40 437.505
ANTELSAT 30 Jun 10:57:36 11:01:06 24° 264° (W) 11:04:40 437.575/2403.000
ZACube-1 30 Jun 11:05:09 11:07:30 14° 293° (WNW) 11:09:52 437.345
BEESAT 2 30 Jun 11:08:53 11:12:42 42° 58° (ENE) 11:16:29 435.950
BUGSAT 1 30 Jun 11:11:40 11:14:57 24° 71° (ENE) 11:18:12 437.445
Oscar 11 30 Jun 11:12:44 11:13:15 10° 295° (WNW) 11:13:46 145.826/435.025
CUBEBUG 1 30 Jun 11:24:13 11:27:36 22° 96° (E) 11:30:59 437.445
O/OREOS (USA 219) 30 Jun 11:37:11 11:41:05 29° 64° (ENE) 11:44:59 437.305
VELOX 1 30 Jun 11:37:28 11:41:17 29° 97° (E) 11:45:05 145.980
NANOSAT C BR1 30 Jun 11:39:20 11:43:24 53° 260° (W) 11:47:30 145.865
JAS-2 30 Jun 11:43:17 11:50:26 45° 71° (ENE) 11:56:59 435.910
QB50P1 30 Jun 11:43:39 11:47:39 44° 261° (W) 11:51:41 145.935-145.965
POPSAT HIP 1 30 Jun 11:47:09 11:51:05 41° 261° (W) 11:55:04 437.405
RS-15 30 Jun 11:48:17 11:59:36 75° 301° (WNW) 12:11:38 29.354- 29.394
PCSat 30 Jun 11:53:44 11:58:40 37° 251° (WSW) 12:03:34 145.827
DUCHIFAT 1 30 Jun 11:59:17 12:03:01 32° 262° (W) 12:06:46 145.980
HUMSAT D 30 Jun 12:00:19 12:02:26 14° 293° (WNW) 12:04:33 437.325/437.525
QB50P2 30 Jun 12:00:30 12:04:02 26° 263° (W) 12:07:36 145.880/145.840
POLYITAN 1 30 Jun 12:03:11 12:06:41 26° 263° (W) 12:10:12 437.675
PHONESAT 2.4 30 Jun 12:04:46 12:06:37 15° 216° (SW) 12:08:28 2401.200-2431.200
SPROUT 30 Jun 12:04:49 12:08:22 25° 96° (E) 12:11:54 437.525
BEESAT 3 30 Jun 12:05:15 12:08:09 20° 249° (WSW) 12:11:02 437.485
UKube-1 30 Jun 12:07:01 12:11:02 37° 99° (E) 12:15:02 .
AIST 2 30 Jun 12:10:16 12:11:34 11° 47° (NE) 12:12:52 435.215
Cosmos 2504 30 Jun 12:14:43 12:19:33 17° 79° (ENE) 12:24:32 435.465 / 435.565
50 SAT 30 Jun 12:16:11 12:19:51 73° 283° (WNW) 12:23:29 437.505
AISAT 30 Jun 12:18:06 12:22:30 85° 286° (WNW) 12:26:54 437.250
YUBILEINY 30 Jun 12:22:04 12:30:43 74° 93° (E) 12:39:26 435.215
ESTCUBE 1 30 Jun 12:22:49 12:27:07 46° 287° (WNW) 12:31:24 437.505/2401.250
DX 1 30 Jun 12:30:40 12:35:01 85° 284° (WNW) 12:39:21 434.975-435.025
Cosmos 2491 30 Jun 12:43:19 12:51:17 42° 272° (W) 12:59:15 435.465 / 435.565
BUGSAT 1 30 Jun 12:47:19 12:50:14 19° 264° (W) 12:53:11 437.445
BEESAT 2 30 Jun 12:48:25 12:50:07 12° 252° (WSW) 12:51:49 435.950
Oscar 19 30 Jun 12:49:36 12:54:34 50° 73° (ENE) 12:59:32 437.125/150
CUBEBUG 1 30 Jun 13:00:15 13:03:49 26° 289° (WNW) 13:07:22 437.445
VELOX 1 30 Jun 13:14:16 13:17:32 21° 291° (WNW) 13:20:48 145.980
TISAT 1 30 Jun 13:16:52 13:20:52 40° 99° (E) 13:24:51 437.305
O/OREOS (USA 219) 30 Jun 13:16:54 13:20:17 21° 259° (WSW) 13:23:39 437.305
ITAMSAT 1 30 Jun 13:19:33 13:22:09 14° 63° (ENE) 13:24:46 435.822/435.867
JUGNU 30 Jun 13:21:05 13:23:36 13° 166° (SSE) 13:26:07 437.505
Gurwin Techsat 1B 30 Jun 13:23:41 13:28:44 46° 72° (ENE) 13:33:47 435.225
ISS 30 Jun 13:26:29 13:28:06 13° 28° (NNE) 13:29:42 145.825
JAS-2 30 Jun 13:28:41 13:35:23 32° 263° (W) 13:41:39 435.910
AO-7 30 Jun 13:34:45 13:39:45 18° 54° (NE) 13:44:44 29.400- 29.500
BEESAT 30 Jun 13:36:14 13:37:26 11° 92° (E) 13:38:38 436.000
ITUPSAT 1 30 Jun 13:38:26 13:39:58 11° 92° (E) 13:41:30 437.325
SPROUT 30 Jun 13:40:49 13:44:10 23° 290° (WNW) 13:47:31 437.525
SO-50 30 Jun 13:43:30 13:46:11 15° 108° (ESE) 13:48:52 436.795
UKube-1 30 Jun 13:44:09 13:46:44 16° 293° (WNW) 13:49:18 .
AIST 2 30 Jun 13:46:20 13:50:29 67° 243° (WSW) 13:54:35 435.215
Cosmos 2504 30 Jun 14:03:37 14:11:41 80° 277° (W) 14:20:23 435.465 / 435.565
RS-15 30 Jun 14:05:56 14:14:34 23° 327° (NNW) 14:23:33 29.354- 29.394
YUBILEINY 30 Jun 14:22:16 14:28:18 20° 291° (WNW) 14:34:23 435.215
Oscar 19 30 Jun 14:31:06 14:34:06 16° 267° (W) 14:37:08 437.125/150
SWISSCUBE 30 Jun 14:45:45 14:50:33 79° 102° (ESE) 14:55:19 437.505
TISAT 1 30 Jun 14:53:56 14:56:08 14° 293° (WNW) 14:58:20 437.305
ITAMSAT 1 30 Jun 14:55:53 15:01:01 63° 258° (WSW) 15:06:14 435.822/435.867
ISS 30 Jun 15:01:38 15:04:53 77° 225° (SW) 15:08:08 145.825
Gurwin Techsat 1B 30 Jun 15:05:16 15:08:50 18° 266° (W) 15:12:27 435.225
JUGNU 30 Jun 15:07:50 15:11:54 19° 176° (S) 15:15:57 437.505
BEESAT 30 Jun 15:10:50 15:15:34 62° 286° (WNW) 15:20:16 436.000
ITUPSAT 1 30 Jun 15:13:23 15:18:08 60° 286° (WNW) 15:22:49 437.325
SO-50 30 Jun 15:21:24 15:26:11 55° 302° (WNW) 15:31:00 436.795
AO-7 30 Jun 15:23:00 15:31:20 88° 70° (ENE) 15:39:44 29.400- 29.500
KKS-1 30 Jun 15:24:26 15:27:31 18° 95° (E) 15:30:37 437.445
MOZHAYETS 4 30 Jun 15:30:45 15:34:15 21° 95° (E) 15:37:44
HORYU 2 30 Jun 15:44:23 15:47:36 20° 68° (ENE) 15:50:50 437.375
STARS 30 Jun 15:50:30 15:53:26 17° 95° (E) 15:56:22 437.465
Cosmos 2504 30 Jun 16:02:58 16:06:33 13° 297° (WNW) 16:10:14 435.465 / 435.565
SRMSAT 30 Jun 16:27:12 16:30:46 16° 171° (S) 16:34:19 437.500
GONETS M04 30 Jun 16:28:43 16:33:18 16° 79° (E) 16:37:51
RS-15 30 Jun 16:29:04 16:34:03 13° 4° (N) 16:39:04 29.354- 29.394
NOAA 15 30 Jun 16:36:06 16:39:18 17° 65° (ENE) 16:42:31 137.62
AIST 1 30 Jun 16:37:24 16:41:44 83° 94° (E) 16:46:02
Cosmos 2499 30 Jun 16:46:24 16:49:19 12° 76° (ENE) 16:52:15 435.465 / 435.565
JUGNU 30 Jun 16:56:20 17:00:14 18° 186° (S) 17:04:07 437.505
BRITE-PL 30 Jun 16:59:08 17:03:06 24° 71° (ENE) 17:06:52 437.365/2234.400
KKS-1 30 Jun 17:00:08 17:04:06 33° 289° (WNW) 17:08:05 437.445
CUBESAT XI-V 30 Jun 17:04:22 17:08:06 24° 96° (E) 17:11:47 437.345
MOZHAYETS 4 30 Jun 17:07:20 17:11:25 31° 289° (WNW) 17:15:27
LilacSat-2 30 Jun 17:19:12 17:22:01 20° 71° (ENE) 17:24:51 437.200
Cubesat XI-IV 30 Jun 17:19:59 17:24:38 31° 69° (ENE) 17:29:18 437.490
HORYU 2 30 Jun 17:20:01 17:23:55 31° 262° (W) 17:27:52 437.375
AO-7 30 Jun 17:20:24 17:24:55 15° 268° (W) 17:29:28 29.400- 29.500
GOMX 1 30 Jun 17:21:59 17:24:49 16° 69° (ENE) 17:27:33 467.674
STARS 30 Jun 17:25:52 17:29:50 34° 288° (WNW) 17:33:49 437.465
NOAA 18 30 Jun 17:32:53 17:38:05 47° 71° (ENE) 17:43:20 137.9125
CUTE-I 30 Jun 17:52:49 17:58:06 66° 74° (ENE) 18:03:25 437.470
DOVE 4 30 Jun 18:09:37 18:13:00 23° 71° (ENE) 18:16:18 437.250
HO-68 30 Jun 18:11:28 18:15:39 17° 58° (ENE) 18:19:51 435.675
NOAA 15 30 Jun 18:13:26 18:18:36 54° 260° (W) 18:23:46 137.62
CUSAT 1 30 Jun 18:13:45 18:16:58 74° 82° (E) 18:19:39 437.405
SRMSAT 30 Jun 18:15:08 18:19:14 19° 181° (S) 18:23:19 437.500
GONETS M04 30 Jun 18:20:09 18:28:53 86° 276° (W) 18:37:37
Cosmos 2499 30 Jun 18:32:34 18:40:48 79° 94° (E) 18:49:37 435.465 / 435.565
BRITE-PL 30 Jun 18:37:00 18:41:26 30° 262° (W) 18:45:36 437.365/2234.400
CUBESAT XI-V 30 Jun 18:41:32 18:45:23 27° 290° (WNW) 18:49:13 437.345
RS-15 30 Jun 18:42:36 18:52:52 29° 40° (NE) 19:03:01 29.354- 29.394
JUGNU 30 Jun 18:47:14 18:48:30 11° 196° (SSW) 18:49:46 437.505
CINEMA 3 30 Jun 18:48:29 18:51:04 16° 68° (ENE) 18:53:40 145.822/145.860
LilacSat-2 30 Jun 18:53:18 18:56:11 21° 265° (W) 18:59:06 437.200
GOMX 1 30 Jun 18:58:21 19:02:39 37° 261° (W) 19:06:44 467.674
DANDE 30 Jun 18:58:31 19:02:52 90° 268° (W) 19:06:08 436.750
Cubesat XI-IV 30 Jun 19:00:07 19:04:37 28° 264° (W) 19:09:11 437.490
CANX-2 30 Jun 19:00:26 19:03:52 24° 70° (ENE) 19:07:18 2200.000
AO-85 30 Jun 19:14:20 19:17:20 15° 107° (ESE) 19:20:19 145.980
NOAA 18 30 Jun 19:15:12 19:18:56 19° 266° (W) 19:22:42 137.9125
SEEDS 30 Jun 19:19:26 19:22:51 24° 71° (ENE) 19:26:16 437.485
CUTE 1.7 + AOD 2 30 Jun 19:19:27 19:23:18 34° 73° (ENE) 19:27:11 437.475
STRAND 1 30 Jun 19:22:06 19:27:02 45° 99° (E) 19:31:55 437.568
CUTE-I 30 Jun 19:36:21 19:38:32 12° 268° (W) 19:40:43 437.470
DOVE 4 30 Jun 19:47:09 19:50:36 23° 264° (W) 19:53:59 437.250
AAUSAT CUBESAT 2 30 Jun 19:51:12 19:54:52 30° 72° (ENE) 19:58:33 437.432
HO-68 30 Jun 19:55:18 20:02:28 83° 255° (WSW) 20:09:40 435.675
M-CUBED/EXP-1 PRIME 30 Jun 19:58:56 20:01:29 21° 67° (ENE) 20:04:03 437.505
CUBEBUG 2 30 Jun 20:04:21 20:08:09 35° 72° (ENE) 20:12:02 437.445
SRMSAT 30 Jun 20:04:32 20:07:41 15° 191° (SSW) 20:10:50 437.500
ZACube-1 30 Jun 20:20:14 20:23:34 23° 70° (ENE) 20:26:59 437.345
GONETS M04 30 Jun 20:22:40 20:26:55 14° 295° (WNW) 20:31:13
CINEMA 3 30 Jun 20:24:15 20:27:56 31° 262° (W) 20:31:40 145.822/145.860
Oscar 11 30 Jun 20:24:48 20:28:34 29° 72° (ENE) 20:32:21 145.826/435.025
COMPASS 1 30 Jun 20:27:11 20:31:23 73° 258° (WSW) 20:35:36 437.405
Cosmos 2499 30 Jun 20:29:19 20:34:55 19° 293° (WNW) 20:40:44 435.465 / 435.565
FUNcube-1 30 Jun 20:35:53 20:39:40 33° 72° (ENE) 20:43:31 145.935
CANX-2 30 Jun 20:36:08 20:39:35 24° 264° (W) 20:43:04 2200.000
PRISM 30 Jun 20:37:33 20:41:22 38° 99° (E) 20:45:08 437.425
UWE-3 30 Jun 20:46:01 20:50:10 78° 76° (ENE) 20:54:28 435.000/436.395/437.385
AUBIESAT-1 30 Jun 20:50:56 20:54:13 77° 253° (WSW) 20:57:32 437.475
AO-85 30 Jun 20:51:56 20:57:20 65° 301° (WNW) 21:02:37 145.980
RS-15 30 Jun 20:54:36 21:07:03 88° 243° (WSW) 21:19:13 29.354- 29.394
SEEDS 30 Jun 20:55:03 20:58:26 23° 265° (W) 21:01:50 437.485
CUTE 1.7 + AOD 2 30 Jun 20:56:31 20:59:12 16° 267° (W) 21:01:54 437.475
STRAND 1 30 Jun 21:02:19 21:05:48 19° 294° (WNW) 21:09:16 437.568
HUMSAT D 30 Jun 21:11:39 21:14:40 20° 69° (ENE) 21:17:43 437.325/437.525
DELFI C3 30 Jun 21:16:39 21:20:34 51° 75° (ENE) 21:24:29 145.870
AAUSAT CUBESAT 2 30 Jun 21:27:32 21:30:21 17° 266° (W) 21:33:11 437.432
M-CUBED/EXP-1 PRIME 30 Jun 21:34:18 21:36:03 14° 260° (W) 21:37:48 437.505
CUBEBUG 2 30 Jun 21:42:35 21:44:54 14° 267° (W) 21:47:16 437.445
HO-68 30 Jun 21:49:19 21:51:00 11° 270° (W) 21:52:43 435.675
ZACube-1 30 Jun 21:56:24 21:59:45 23° 265° (W) 22:03:10 437.345
Oscar 11 30 Jun 22:01:33 22:04:40 19° 265° (W) 22:07:49 145.826/435.025
TIGRISAT 30 Jun 22:06:21 22:10:13 25° 96° (E) 22:14:05 435.000
UNISAT 6 30 Jun 22:12:08 22:16:18 31° 97° (E) 22:20:27 437.425
FUNcube-1 30 Jun 22:13:23 22:15:59 16° 267° (W) 22:18:38 145.935
PRISM 30 Jun 22:14:13 22:16:18 14° 293° (WNW) 22:18:22 437.425
CUBEBUG 1 30 Jun 22:18:19 22:20:15 13° 66° (ENE) 22:22:10 437.445
VELOX 1 30 Jun 22:32:12 22:35:06 18° 68° (ENE) 22:38:01 145.980
YUBILEINY 30 Jun 22:37:18 22:44:51 30° 73° (ENE) 22:52:20 435.215
HUMSAT D 30 Jun 22:46:31 22:50:05 27° 264° (W) 22:53:42 437.325/437.525
50 SAT 30 Jun 22:50:46 22:53:55 27° 72° (ENE) 22:57:05 437.505
ANTELSAT 30 Jun 22:51:24 22:56:07 87° 100° (E) 23:00:49 437.575/2403.000
SPROUT 30 Jun 22:56:38 22:58:31 13° 67° (ENE) 23:00:24 437.525
UKube-1 30 Jun 22:58:42 23:01:56 21° 69° (ENE) 23:05:11 .
RS-15 30 Jun 23:10:06 23:17:45 19° 261° (W) 23:25:22 29.354- 29.394
AISAT 30 Jun 23:11:47 23:16:03 53° 74° (ENE) 23:20:21 437.250
ESTCUBE 1 30 Jun 23:18:14 23:22:46 81° 256° (WSW) 23:27:20 437.505/2401.250
DX 1 30 Jun 23:22:29 23:26:41 51° 74° (ENE) 23:30:54 434.975-435.025
NANOSAT C BR1 30 Jun 23:27:21 23:31:06 30° 97° (E) 23:34:50 145.865
QB50P1 30 Jun 23:31:45 23:35:41 35° 98° (E) 23:39:37 145.935-145.965
POPSAT HIP 1 30 Jun 23:35:11 23:39:11 38° 99° (E) 23:43:10 437.405
TIGRISAT 30 Jun 23:42:51 23:46:47 27° 290° (WNW) 23:50:43 435.000
Cosmos 2491 30 Jun 23:43:00 23:51:15 48° 89° (E) 23:59:28 435.465 / 435.565
DUCHIFAT 1 30 Jun 23:46:20 23:50:26 47° 100° (E) 23:54:32 145.980
QB50P2 30 Jun 23:48:01 23:52:15 62° 101° (E) 23:56:29 145.880/145.840
UNISAT 6 30 Jun 23:49:11 23:52:47 22° 291° (WNW) 23:56:23 437.425
POLYITAN 1 30 Jun 23:50:38 23:54:54 63° 101° (E) 23:59:09 437.675
CUBEBUG 1 30 Jun 23:51:52 23:56:05 48° 260° (W) 00:00:17 437.445
SO-50 30 Jun 23:56:24 00:00:54 50° 57° (ENE) 00:05:15 436.795
Cosmos 2504 01 Jul 00:01:16 00:09:01 33° 73° (ENE) 00:16:24 435.465 / 435.565
TISAT 1 01 Jul 00:05:54 00:08:52 19° 69° (ENE) 00:11:52 437.305
VELOX 1 01 Jul 00:07:14 00:11:16 35° 261° (W) 00:15:19 145.980
BEESAT 3 01 Jul 00:17:46 00:18:07 10° 107° (ESE) 00:18:28 437.485
50 SAT 01 Jul 00:25:23 00:27:35 15° 266° (W) 00:29:48 437.505
SPROUT 01 Jul 00:29:58 00:34:01 45° 261° (W) 00:38:07 437.525
BUGSAT 1 01 Jul 00:31:01 00:35:09 72° 103° (ESE) 00:39:18 437.445
YUBILEINY 01 Jul 00:33:26 00:41:52 51° 271° (W) 00:50:17 435.215
UKube-1 01 Jul 00:34:07 00:37:47 27° 263° (W) 00:41:29 .
JAS-2 01 Jul 00:42:22 00:47:29 42° 98° (E) 00:52:22 435.910
PCSat 01 Jul 00:48:13 00:53:23 47° 111° (ESE) 00:58:35 145.827
AISAT 01 Jul 00:51:39 00:52:47 11° 268° (W) 00:53:56 437.250
BEESAT 2 01 Jul 00:58:34 01:01:14 17° 110° (ESE) 01:03:54 435.950
DX 1 01 Jul 01:01:55 01:03:07 11° 267° (W) 01:04:20 434.975-435.025
NANOSAT C BR1 01 Jul 01:03:36 01:06:36 19° 291° (WNW) 01:09:35 145.865
Oscar 19 01 Jul 01:05:17 01:09:21 23° 96° (E) 01:13:25 437.125/150
QB50P1 01 Jul 01:08:31 01:11:09 16° 292° (WNW) 01:13:46 145.935-145.965
POPSAT HIP 1 01 Jul 01:12:11 01:14:37 15° 292° (WNW) 01:17:03 437.405
DUCHIFAT 1 01 Jul 01:23:57 01:25:40 12° 294° (WNW) 01:27:23 145.980
SO-50 01 Jul 01:38:34 01:40:51 14° 253° (WSW) 01:43:07 436.795
Cosmos 2491 01 Jul 01:40:37 01:48:12 32° 286° (WNW) 01:55:50 435.465 / 435.565
TISAT 1 01 Jul 01:40:46 01:44:19 27° 263° (W) 01:47:54 437.305
Gurwin Techsat 1B 01 Jul 01:43:58 01:48:15 24° 96° (E) 01:52:30 435.225
O/OREOS (USA 219) 01 Jul 01:45:22 01:49:49 66° 107° (ESE) 01:54:16 437.305
SWISSCUBE 01 Jul 01:48:29 01:53:11 60° 74° (ENE) 01:57:55 437.505
BEESAT 3 01 Jul 01:51:30 01:55:18 49° 301° (WNW) 01:59:08 437.485
Cosmos 2504 01 Jul 01:54:14 02:02:33 47° 272° (W) 02:10:25 435.465 / 435.565
BEESAT 01 Jul 02:13:22 02:18:08 82° 257° (WSW) 02:22:57 436.000
ITUPSAT 1 01 Jul 02:16:15 02:21:03 78° 257° (WSW) 02:25:53 437.325
KKS-1 01 Jul 02:20:54 02:22:23 12° 65° (ENE) 02:23:51 437.445
JAS-2 01 Jul 02:28:28 02:32:12 19° 296° (WNW) 02:35:48 435.910
MOZHAYETS 4 01 Jul 02:30:20 02:32:44 14° 66° (ENE) 02:35:09
PCSat 01 Jul 02:32:54 02:37:00 22° 307° (NW) 02:41:08 145.827
BEESAT 2 01 Jul 02:35:17 02:38:48 30° 304° (NW) 02:42:21 435.950
STARS 01 Jul 02:46:15 02:46:54 10° 64° (ENE) 02:47:33 437.465
